Sault Ste Marie, MI

5:53 PM EDT on March 24, 2017 (GMT -0400)
Sault Ste Marie Municipal / Sanderson Field

Weather History for KANJ - July, 2013

Change the Weather History Date:

Tuesday, July 9, 2013

  Actual Average Record
Temperature  
Mean Temperature 72 °F 65 °F  
Max Temperature 79 °F 76 °F 96 °F (1936)
Min Temperature 64 °F 54 °F 41 °F (1991)
Degree Days  
Heating Degree Days 0 3  
Month to date heating degree days 1 27  
Since 1 June heating degree days 147 207  
Since 1 July heating degree days 1 27  
Cooling Degree Days 7 2  
Month to date cooling degree days 40 18  
Year to date cooling degree days 88 53  
Since 1 June cooling degree days 79 48  
Growing Degree Days 22 (Base 50)    
Moisture  
Dew Point 65 °F    
Average Humidity 82    
Maximum Humidity 97    
Minimum Humidity 67    
Precipitation  
Precipitation 0.17 in 0.08 in 1.02 in (1928)
Month to date precipitation 0.17 0.77  
Year to date precipitation 17.68 13.91  
Sea Level Pressure  
Sea Level Pressure 29.91 in    
Wind  
Wind Speed 5 mph (SE)    
Max Wind Speed 14 mph    
Max Gust Speed 18 mph    
Visibility 6 miles    
Events Rain    
T = Trace of Precipitation, MM = Missing Value Source: NWS Daily Summary

Daily Weather History Graph

Daily Weather History Graph

Search for Another Location

Airport or City:

Trip Planner

Search our weather history database for the weather conditions in past years. The results will help you decide how hot, cold, wet, or windy it might be!

Date:

Astronomy

Jul. 09, 2013 Rise Set
Actual Time 5:54 AM EDT 9:30 PM EDT
Civil Twilight 5:16 AM EDT 10:08 PM EDT
Nautical Twilight 4:25 AM EDT 10:59 PM EDT
Astronomical Twilight 3:16 AM EDT 12:07 AM EDT
Moon 7:26 AM EDT (7/9) 9:57 PM EDT (7/9)
Length of Visible Light 16h 52m
Length of Day
15h 36m
New Moon, 2% of the Moon is Illuminated
Jul 9
New Moon
Jul 15
First Quarter
Jul 22
Full
Jul 29
Last Quarter
Aug 6
New

Hourly Weather History & Observations

Time (EDT) Temp. Dew Point Humidity Pressure Visibility Wind Dir Wind Speed Gust Speed Precip Events Conditions
12:55 AM 64.9 °F 62.1 °F 90% 29.99 in 4.0 mi Calm Calm - N/A   Clear
1:55 AM 64.9 °F 63.0 °F 93% 30.00 in 3.0 mi Calm Calm - N/A   Mostly Cloudy
2:10 AM 64.9 °F 62.1 °F 90% 30.01 in 5.0 mi Calm Calm - N/A   Overcast
2:55 AM 66.0 °F 64.0 °F 93% 30.00 in 4.0 mi Calm Calm - N/A   Overcast
3:55 AM 66.0 °F 64.0 °F 93% 30.00 in 4.0 mi Calm Calm - N/A   Overcast
4:25 AM 64.9 °F 64.0 °F 97% 30.01 in 3.0 mi Calm Calm - N/A   Overcast
4:40 AM 66.0 °F 64.0 °F 93% 30.00 in 4.0 mi Calm Calm - N/A   Overcast
4:55 AM 66.0 °F 64.0 °F 93% 29.99 in 3.0 mi Calm Calm - N/A   Overcast
5:13 AM 66.0 °F 64.0 °F 93% 29.99 in 3.0 mi Calm Calm - N/A   Overcast
5:55 AM 66.0 °F 63.0 °F 90% 29.99 in 4.0 mi Calm Calm - N/A   Overcast
6:55 AM 66.9 °F 64.0 °F 90% 29.99 in 3.0 mi Calm Calm - N/A   Overcast
7:23 AM 66.9 °F 64.9 °F 93% 30.00 in 2.5 mi Calm Calm - N/A   Overcast
7:42 AM 68.0 °F 64.9 °F 90% 30.00 in 3.0 mi Calm Calm - N/A   Overcast
7:55 AM 69.1 °F 64.9 °F 87% 29.99 in 3.0 mi Calm Calm - N/A   Mostly Cloudy
8:08 AM 70.0 °F 64.9 °F 84% 29.99 in 4.0 mi Calm Calm - N/A   Haze
8:41 AM 70.0 °F 64.9 °F 84% 29.99 in 5.0 mi Calm Calm - N/A   Haze
8:48 AM 70.0 °F 64.9 °F 84% 29.99 in 6.0 mi Calm Calm - N/A   Haze
8:55 AM 70.0 °F 64.9 °F 84% 29.98 in 6.0 mi Calm Calm - N/A   Haze
9:55 AM 73.0 °F 64.9 °F 76% 29.97 in 9.0 mi SE 4.6 mph - N/A   Overcast
10:09 AM 73.0 °F 66.0 °F 79% 29.98 in 8.0 mi Variable 3.5 mph - N/A   Overcast
10:55 AM 73.0 °F 64.9 °F 76% 29.97 in 8.0 mi SE 5.8 mph - N/A   Overcast
11:55 AM 73.9 °F 66.0 °F 76% 29.94 in 8.0 mi SE 5.8 mph - N/A   Overcast
12:55 PM 75.0 °F 66.0 °F 73% 29.94 in 10.0 mi South 5.8 mph - N/A   Overcast
1:55 PM 77.0 °F 66.9 °F 71% 29.92 in 10.0 mi SSE 5.8 mph - N/A   Overcast
2:55 PM 79.0 °F 66.0 °F 64% 29.89 in 10.0 mi SE 8.1 mph - N/A   Overcast
3:55 PM 79.0 °F 66.0 °F 64% 29.88 in 10.0 mi SE 12.7 mph - N/A   Mostly Cloudy
4:55 PM 78.1 °F 66.9 °F 68% 29.86 in 10.0 mi SE 11.5 mph - N/A   Mostly Cloudy
5:55 PM 77.0 °F 66.9 °F 71% 29.85 in 10.0 mi SSE 10.4 mph - N/A   Partly Cloudy
6:55 PM 75.9 °F 66.9 °F 74% 29.83 in 10.0 mi SSE 9.2 mph - N/A   Partly Cloudy
7:55 PM 73.9 °F 64.9 °F 73% 29.81 in 10.0 mi SE 8.1 mph - N/A   Clear
8:55 PM 73.0 °F 66.0 °F 79% 29.78 in 10.0 mi SE 5.8 mph - N/A   Clear
9:55 PM 71.1 °F 66.9 °F 87% 29.77 in 10.0 mi SSE 6.9 mph - N/A   Partly Cloudy
10:55 PM 71.1 °F 66.9 °F 87% 29.75 in 10.0 mi ESE 3.5 mph - N/A   Overcast
11:08 PM 70.0 °F 66.9 °F 90% 29.77 in 7.0 mi Variable 3.5 mph - 0.00 in Rain Light Rain
11:29 PM 70.0 °F 66.9 °F 90% 29.75 in 2.0 mi ESE 6.9 mph - 0.11 in Rain Heavy Rain
11:43 PM 69.1 °F 68.0 °F 96% 29.74 in 7.0 mi ESE 5.8 mph - 0.16 in Rain Light Rain
11:50 PM 69.8 °F 68.0 °F 94% 29.75 in 7.0 mi SE 5.8 mph - 0.16 in Rain Light Rain
11:55 PM 69.1 °F 68.0 °F 96% 29.73 in 8.0 mi SE 8.1 mph - 0.16 in   Overcast